OBJECT H

基本信息
目录编号:
69545
目录名称:
OBJECT H
国际标识:
2026-134H
轨道中心:
EARTH
物体状态:
在轨
发射日期:
2026-06-15 UTC
国别:
中国 (CN)
轨道信息
数据来源: 国际轨道数据
星历时间: 2026-09-05T13:48:37+0800
半长轴: 6915.743km
偏心率: 0.001798
轨道倾角: 97.697°
近地点辐角: 2.890°
升交点赤经: 318.739°
平近点角: 357.243°
近地点: 525.171km
远地点: 550.041km
周期: 95.393分钟
每日圈数: 15.095396
详细信息
发射场:
JSC
轨道高度:
LEO
数据来源:
AOE Working Group
参考系:
TEME
时间系统:
UTC
历元类型:
SGP4
2D轨道图
3D轨道图
轨道高度分析图
轨道倾角分析图
轨道综合分析图
查看轨道综合分析图